GW1757 Weather Reports


time (UTC)temp
C
wind
direction
speed
KPH
gust
KPH
rain 1hr
cm
rain 24hr
cm
rain mn
cm
humidity
%
barometer
mb
20260508125824 26 217 1.6 4.8 0.00 3.99 3.99 90 1008.6
20260508125316 26 224 1.6 6.4 0.00 3.99 3.99 90 1008.6
20260508124806 27 224 1.6 6.4 0.00 3.99 3.99 90 1008.6
20260508124259 27 201 1.6 4.8 0.00 3.99 3.99 90 1008.5
20260508123759 27 213 1.6 4.8 0.00 3.99 3.99 90 1008.5
20260508123257 27 217 1.6 4.8 0.00 3.99 3.99 90 1008.5
20260508122802 27 230 1.6 4.8 0.00 3.99 3.99 90 1008.6
20260508122519 27 231 1.6 4.8 0.00 3.99 3.99 90 1008.5
20260508121756 27 185 1.6 4.8 0.00 3.99 3.99 90 1008.4
20260508121257 27 240 1.6 4.8 0.00 3.99 3.99 90 1008.4
20260508120757 27 224 1.6 6.4 0.00 3.99 3.99 89 1008.4
20260508120301 27 359 1.6 6.4 0.00 3.99 3.99 89 1008.4
20260508115755 27 223 1.6 4.8 0.00 3.99 3.99 89 1008.4
20260508115520 27 212 1.6 4.8 0.00 3.99 3.99 88 1008.3
20260508114753 28 214 1.6 4.8 0.00 3.99 3.99 88 1008.2
20260508114253 28 218 1.6 4.8 0.00 3.99 3.99 88 1008.1
20260508113751 28 99 3.2 6.4 0.00 3.99 3.99 87 1008.1
20260508113250 28 98 4.8 6.4 0.00 3.99 3.99 87 1008.0
20260508112752 28 81 3.2 6.4 0.00 3.99 3.99 87 1008.1
20260508112254 28 64 4.8 8.0 0.00 3.99 3.99 87 1007.9
20260508111750 28 79 4.8 8.0 0.00 3.99 3.99 87 1007.7
20260508111251 28 67 4.8 8.0 0.00 3.99 3.99 87 1007.7
20260508110751 27 53 4.8 6.4 0.00 3.99 3.99 88 1007.7
20260508110248 27 77 3.2 6.4 0.00 3.99 3.99 89 1007.6
20260508105749 27 37 3.2 6.4 0.00 3.99 3.99 89 1007.6
20260508105249 27 8 3.2 6.4 0.00 3.99 3.99 89 1007.6
20260508104750 27 354 3.2 6.4 0.00 3.99 3.99 89 1007.5
20260508104249 27 52 4.8 8.0 0.00 3.99 3.99 89 1007.4
20260508103749 27 354 3.2 8.0 0.00 3.99 3.99 89 1007.3
20260508103249 27 359 3.2 6.4 0.00 3.99 3.99 89 1007.2
20260508102749 27 359 3.2 6.4 0.00 3.99 3.99 89 1007.2
20260508102250 27 359 4.8 6.4 0.00 3.99 3.99 89 1007.1
20260508101749 27 14 4.8 8.0 0.00 3.99 3.99 89 1007.0
20260508101252 27 31 4.8 9.7 0.00 3.99 3.99 89 1006.9
20260508100755 27 350 6.4 12.9 0.00 3.99 3.99 89 1006.8
20260508100252 27 331 4.8 12.9 0.00 3.99 3.99 88 1006.8
20260508095752 28 29 6.4 12.9 0.00 3.99 3.99 88 1006.7
20260508095246 28 17 6.4 14.5 0.00 3.99 3.99 88 1006.6
20260508094740 28 31 8.0 14.5 0.00 3.99 3.99 88 1006.5
20260508094234 28 49 6.4 14.5 0.00 3.99 3.99 88 1006.5
20260508093728 28 359 6.4 12.9 0.00 3.99 3.99 87 1006.4
20260508093222 28 359 6.4 12.9 0.00 3.99 3.99 87 1006.4
20260508092716 28 12 4.8 12.9 0.00 3.99 3.99 87 1006.3
20260508092428 28 36 4.8 11.3 0.00 3.99 3.99 86 1006.2
20260508091703 28 33 4.8 14.5 0.00 3.99 3.99 86 1006.2
20260508091203 28 4 6.4 14.5 0.00 3.99 3.99 86 1006.1
20260508090652 28 359 8.0 14.5 0.00 3.99 3.99 86 1006.0
20260508090148 28 20 8.0 14.5 0.00 3.99 3.99 85 1006.0
20260508085640 29 61 8.0 16.1 0.00 3.99 3.99 85 1006.0
20260508085134 29 60 6.4 16.1 0.00 3.99 3.99 84 1005.9
20260508084629 29 68 6.4 19.3 0.00 3.99 3.99 84 1005.8
20260508084122 29 45 8.0 19.3 0.00 3.99 3.99 85 1005.7
20260508083615 29 66 9.7 19.3 0.00 3.99 3.99 84 1005.7
20260508083329 29 359 9.7 20.9 0.00 3.99 3.99 83 1005.7
20260508082603 29 33 9.7 17.7 0.00 3.99 3.99 83 1005.7
20260508082058 29 15 11.3 19.3 0.00 3.99 3.99 82 1005.7
20260508081552 29 37 11.3 25.7 0.00 3.99 3.99 84 1005.5
20260508081312 29 12 11.3 25.7 0.00 3.99 3.99 83 1005.5
20260508080540 29 333 11.3 20.9 0.00 3.99 3.99 83 1005.5
20260508080034 29 10 9.7 20.9 0.00 3.99 3.99 84 1005.5
20260508075528 30 27 8.0 20.9 0.00 3.99 3.99 82 1005.5
20260508075022 30 61 6.4 16.1 0.00 3.99 3.99 82 1005.5
20260508074516 30 21 8.0 17.7 0.00 3.99 3.99 81 1005.5
20260508074011 30 8 9.7 17.7 0.00 3.99 3.99 81 1005.3
20260508073506 30 8 9.7 17.7 0.00 3.99 3.99 80 1005.3
20260508072958 30 70 8.0 19.3 0.00 3.99 3.99 79 1005.3
20260508072453 30 349 9.7 24.1 0.00 3.99 3.99 79 1005.3
20260508072210 30 38 9.7 24.1 0.00 3.99 3.99 78 1005.5
20260508071926 30 33 11.3 22.5 0.00 3.99 3.99 77 1005.5
20260508070941 30 328 12.9 25.7 0.00 3.99 3.99 77 1005.5
20260508070427 30 22 12.9 25.7 0.00 3.99 3.99 78 1005.6
20260508065922 30 114 12.9 25.7 0.00 3.99 3.99 78 1005.6
20260508065416 30 8 12.9 25.7 0.00 3.99 3.99 77 1005.6
20260508064909 30 21 14.5 27.4 0.00 3.99 3.99 79 1005.6
20260508064403 30 30 16.1 27.4 0.00 3.99 3.99 80 1005.6
20260508063858 30 13 14.5 27.4 0.00 3.99 3.99 80 1005.5
20260508063352 30 27 11.3 24.1 0.00 3.99 3.99 80 1005.6
20260508062845 30 354 11.3 22.5 0.00 3.99 3.99 80 1005.6
20260508062345 30 359 11.3 29.0 0.00 3.99 3.99 79 1005.6
20260508061834 31 43 12.9 29.0 0.00 3.99 3.99 77 1005.7
20260508061328 31 25 12.9 24.1 0.00 3.99 3.99 74 1005.8
20260508060822 31 54 11.3 24.1 0.00 3.99 3.99 70 1005.9
20260508060316 31 37 9.7 22.5 0.00 3.99 3.99 70 1005.8
20260508060254 31 359 6.4 22.5 0.00 3.99 3.99 69 1005.9
20260508055306 31 92 9.7 24.1 0.00 3.99 3.99 72 1006.1
20260508054758 30 4 12.9 27.4 0.00 3.99 3.99 73 1006.0
20260508054252 30 29 12.9 27.4 0.00 3.99 3.99 71 1006.1
20260508053746 30 79 9.7 20.9 0.00 3.99 3.99 74 1006.2
20260508053239 30 62 11.3 27.4 0.00 3.99 3.99 73 1006.3
20260508052734 30 22 11.3 29.0 0.00 3.99 3.99 71 1006.4
20260508051722 30 62 12.9 25.7 0.00 3.99 3.99 73 1006.7
20260508051215 30 33 11.3 25.7 0.00 3.99 3.99 77 1006.7
20260508050716 30 46 11.3 24.1 0.00 3.99 3.99 75 1006.7
20260508050216 30 45 14.5 29.0 0.00 3.99 3.99 77 1006.7
20260508045716 30 61 12.9 30.6 0.00 3.99 3.99 76 1006.8
20260508045217 30 70 11.3 30.6 0.00 3.99 3.99 81 1006.9
20260508044717 30 43 12.9 27.4 0.00 3.99 3.99 82 1006.9
20260508044216 30 4 12.9 27.4 0.00 3.99 3.99 81 1007.0
20260508043717 30 14 12.9 27.4 0.00 3.99 3.99 83 1007.1
20260508043216 29 23 12.9 25.7 0.00 3.99 3.99 83 1007.1
20260508042725 29 68 14.5 29.0 0.00 3.99 3.99 83 1007.2
20260508042216 29 80 16.1 29.0 0.00 3.99 3.99 83 1007.4
20260508041716 29 108 16.1 25.7 0.00 3.99 3.99 83 1007.4
20260508041214 29 35 16.1 30.6 0.00 3.99 3.99 84 1007.4
20260508040935 29 359 16.1 30.6 0.00 3.99 3.99 84 1007.6
20260508040213 29 359 16.1 27.4 0.00 3.99 3.99 85 1007.6
20260508035714 29 359 14.5 27.4 0.00 3.99 3.99 84 1007.6
20260508035215 29 43 16.1 27.4 0.00 3.99 3.99 84 1007.6
20260508034714 28 345 16.1 27.4 0.00 3.99 3.99 85 1007.6
20260508034214 28 20 14.5 27.4 0.00 3.99 3.99 85 1007.8
20260508033714 29 359 14.5 27.4 0.00 3.99 3.99 85 1007.9
20260508033214 28 8 14.5 27.4 0.00 3.99 3.99 85 1007.9
20260508032714 28 359 16.1 27.4 0.00 3.99 3.99 85 1008.0
20260508032214 28 345 16.1 27.4 0.00 3.99 3.99 87 1007.9
20260508031716 28 359 12.9 25.7 0.00 3.99 3.99 85 1008.0
20260508031214 28 18 12.9 25.7 0.00 3.99 3.99 87 1008.2
20260508030714 28 14 14.5 25.7 0.00 3.99 3.99 86 1008.2
20260508030214 28 25 16.1 25.7 0.00 3.99 3.99 86 1008.2
20260508025713 28 60 14.5 25.7 0.00 3.99 3.99 86 1008.2
20260508025212 28 23 14.5 24.1 0.00 3.99 3.99 87 1008.3
20260508024711 28 337 12.9 24.1 0.00 3.99 3.99 87 1008.3
20260508024212 28 42 14.5 25.7 0.00 3.99 3.99 87 1008.2
20260508023944 28 25 14.5 25.7 0.00 3.99 3.99 88 1008.2
20260508023210 28 33 12.9 27.4 0.00 3.99 3.99 87 1008.2
20260508022753 28 354 12.9 27.4 0.00 3.99 3.99 87 1008.2
20260508021921 28 62 11.3 24.1 0.00 3.99 3.99 88 1008.3
20260508021147 28 359 12.9 25.7 0.00 3.99 3.99 88 1008.5
20260508020641 28 25 12.9 25.7 0.00 3.99 3.99 88 1008.6
20260508020135 28 29 12.9 25.7 0.00 3.99 3.99 88 1008.5
20260508015629 28 25 12.9 25.7 0.00 3.99 3.99 89 1008.5
20260508015123 28 14 11.3 24.1 0.00 3.99 3.99 89 1008.7
20260508014617 28 346 9.7 24.1 0.00 3.99 3.99 89 1008.8
20260508014111 27 26 8.0 19.3 0.00 3.99 3.99 90 1008.7
20260508013606 27 344 9.7 22.5 0.00 3.99 3.99 90 1008.8
20260508013059 27 29 11.3 22.5 0.00 3.99 3.99 89 1008.7
20260508012553 27 9 11.3 22.5 0.00 3.99 3.99 90 1008.7
20260508012047 27 60 9.7 22.5 0.00 3.99 3.99 90 1008.7
20260508011810 27 19 9.7 20.9 0.00 3.99 3.99 90 1008.8
20260508011038 27 29 9.7 22.5 0.00 3.99 3.99 90 1008.9
20260508010529 27 359 9.7 22.5 0.00 3.99 3.99 90 1008.9
20260508010024 27 89 8.0 22.5 0.00 3.99 3.99 90 1008.8
20260508005517 27 12 4.8 19.3 0.00 3.99 3.99 89 1008.8
20260508005011 28 341 4.8 14.5 0.00 3.99 3.99 90 1008.9
20260508004505 27 97 6.4 16.1 0.00 3.99 3.99 90 1009.0
20260508003959 27 92 6.4 16.1 0.00 3.99 3.99 89 1008.9
20260508003452 27 21 6.4 16.1 0.00 3.99 3.99 91 1008.8
20260508003215 27 106 8.0 17.7 0.00 3.99 3.99 91 1008.8
20260508002441 27 54 8.0 17.7 0.00 3.99 3.99 91 1008.8
20260508001935 27 41 8.0 17.7 0.00 3.99 3.99 91 1008.8
20260508001428 27 58 6.4 17.7 0.00 3.99 3.99 92 1008.7
20260508000923 27 55 3.2 9.7 0.00 3.99 3.99 92 1008.7
20260508000419 26 41 4.8 14.5 0.00 3.99 3.99 92 1008.8
20260507235911 26 112 3.2 14.5 0.00 3.99 3.99 92 1008.8
20260507235405 26 49 1.6 9.7 0.00 3.99 3.99 92 1008.7
20260507234859 26 118 1.6 9.7 0.00 3.99 3.99 92 1008.6
20260507234356 26 141 1.6 6.4 0.00 3.99 3.99 92 1008.6
20260507233847 26 88 3.2 11.3 0.00 3.99 3.99 92 1008.5
20260507233608 26 112 4.8 11.3 0.00 3.99 3.99 92 1008.5
20260507233101 26 121 3.2 11.3 0.00 3.99 3.99 92 1008.4
20260507232328 26 128 3.2 11.3 0.00 3.99 3.99 92 1008.5
20260507231824 27 107 1.6 9.7 0.00 3.99 3.99 92 1008.5
20260507231317 27 133 3.2 9.7 0.00 3.99 3.99 92 1008.4
20260507230811 27 135 4.8 11.3 0.00 3.99 3.99 92 1008.4
20260507230305 26 111 3.2 11.3 0.00 3.99 3.99 92 1008.3
20260507225759 26 144 1.6 8.0 0.00 3.99 3.99 92 1008.3
20260507225253 27 110 1.6 8.0 0.00 3.99 3.99 93 1008.2
20260507224749 26 133 1.6 8.0 0.00 3.99 3.99 93 1008.2
20260507224507 26 110 1.6 4.8 0.00 3.99 3.99 93 1008.1
20260507223735 26 135 3.2 12.9 0.00 3.99 3.99 93 1008.0
20260507223230 26 126 4.8 12.9 0.00 3.99 3.99 93 1008.0
20260507222726 26 144 4.8 9.7 0.00 3.99 3.99 93 1007.9
20260507222217 26 120 6.4 11.3 0.00 3.99 3.99 93 1007.7
20260507221711 26 141 6.4 11.3 0.00 3.99 3.99 93 1007.6
20260507221205 26 126 6.4 14.5 0.00 3.99 3.99 93 1007.7
20260507220700 26 122 6.4 14.5 0.00 3.99 3.99 93 1007.6
20260507220153 26 122 6.4 11.3 0.00 3.99 3.99 93 1007.5
20260507215647 26 125 6.4 12.9 0.00 3.99 3.99 93 1007.4
20260507215141 26 119 6.4 12.9 0.00 3.99 3.99 93 1007.2
20260507214635 26 126 6.4 12.9 0.00 3.99 3.99 93 1007.2
20260507214130 26 118 6.4 12.9 0.00 3.99 3.99 93 1007.1
20260507213624 26 135 6.4 12.9 0.00 3.99 3.99 93 1007.1
20260507213347 26 126 3.2 12.9 0.00 3.99 3.99 93 1007.1
20260507212611 26 113 1.6 12.9 0.00 3.99 3.99 93 1007.0
20260507212105 26 108 0.0 6.4 0.00 3.99 3.99 93 1007.1
20260507211600 26 122 0.0 3.2 0.00 3.99 3.99 94 1007.0
20260507211054 26 107 0.0 3.2 0.00 3.99 3.99 93 1007.0
20260507210817 26 112 0.0 3.2 0.00 3.99 3.99 93 1007.0
20260507210055 26 209 0.0 3.2 0.00 3.99 3.99 93 1006.8
20260507205820 26 187 1.6 9.7 0.00 3.99 3.99 93 1006.8
20260507205055 26 126 3.2 9.7 0.00 3.99 3.99 93 1006.8
20260507204553 26 102 4.8 9.7 0.00 3.99 3.99 93 1006.7
20260507204321 26 120 4.8 11.3 0.00 3.99 3.99 93 1006.8
20260507203551 26 125 4.8 11.3 0.00 3.99 3.99 94 1006.7
20260507203053 26 128 3.2 6.4 0.00 3.99 3.99 94 1006.6
20260507202551 26 108 3.2 9.7 0.00 3.99 3.99 94 1006.7
20260507202051 26 139 4.8 12.9 0.00 3.99 3.99 94 1006.7
20260507201551 26 141 6.4 12.9 0.00 3.99 3.99 94 1006.6
20260507201313 26 131 6.4 12.9 0.00 3.99 3.99 94 1006.6
20260507200551 26 122 8.0 14.5 0.00 3.99 3.99 94 1006.6
20260507200309 26 112 9.7 16.1 0.00 3.99 3.99 94 1006.5
20260507195550 26 114 9.7 16.1 0.00 3.99 3.99 94 1006.5
20260507195047 26 104 8.0 12.9 0.00 3.99 3.99 94 1006.5
20260507194547 26 96 6.4 11.3 0.00 3.99 3.99 94 1006.6
20260507194047 26 106 6.4 11.3 0.00 3.99 3.99 94 1006.5
20260507193809 26 359 6.4 11.3 0.00 3.99 3.99 94 1006.6
20260507193047 26 95 4.8 11.3 0.00 3.99 3.99 94 1006.5
20260507192548 25 102 4.8 11.3 0.00 3.99 3.99 94 1006.5
20260507192048 25 131 6.4 11.3 0.00 3.99 3.99 94 1006.5
20260507191547 26 359 4.8 11.3 0.00 3.99 3.99 94 1006.6
20260507191047 26 125 1.6 9.7 0.00 3.99 3.99 94 1006.8
20260507190546 26 98 0.0 0.0 0.00 3.99 3.99 95 1006.7
20260507190047 25 112 0.0 0.0 0.00 3.99 3.99 95 1006.7
20260507185817 25 124 0.0 0.0 0.05 3.99 3.99 95 1006.8
20260507185047 25 147 0.0 0.0 0.13 3.99 3.99 95 1006.8
20260507184806 25 135 0.0 0.0 0.18 3.99 3.99 95 1006.7
20260507184047 25 359 0.0 0.0 0.43 3.99 3.99 95 1006.8
20260507183547 25 359 1.6 8.0 1.12 3.99 3.99 95 1006.8
20260507183047 25 156 4.8 14.5 1.60 3.99 3.99 95 1006.9
20260507182757 25 123 6.4 14.5 1.96 3.99 3.99 95 1007.0
20260507182034 25 132 6.4 12.9 2.36 3.99 3.99 95 1006.7
20260507181528 25 127 8.0 14.5 2.36 3.99 3.99 95 1006.5
20260507181022 25 138 4.8 14.5 2.49 3.99 3.99 95 1006.7
20260507180956 25 136 3.2 14.5 2.87 3.99 3.99 95 1007.0
20260507180010 25 112 3.2 12.9 3.25 3.99 3.99 95 1006.9
20260507175505 25 119 4.8 12.9 3.40 3.94 3.91 95 1006.8
20260507174958 25 132 4.8 14.5 3.33 3.84 3.86 94 1006.7
20260507174452 25 132 4.8 16.1 3.30 3.81 3.78 94 1006.5
20260507174440 25 141 4.8 16.1 2.84 3.20 3.35 94 1006.6
20260507173704 25 157 3.2 11.3 2.69 2.79 2.77 94 1006.7
20260507173151 26 157 1.6 9.7 2.36 2.39 2.36 94 1006.8
20260507172428 26 145 1.6 9.7 1.78 1.80 1.85 94 1006.5
20260507171922 26 214 1.6 14.5 1.63 1.65 1.63 94 1006.6
20260507171415 26 84 3.2 14.5 1.60 1.63 1.63 94 1006.8
20260507170910 26 340 6.4 14.5 1.42 1.45 1.42 94 1006.8
20260507170404 26 14 8.0 16.1 0.94 0.97 0.97 94 1007.1
20260507165858 26 125 6.4 16.1 0.71 0.71 0.71 94 1007.0
20260507165352 26 144 3.2 9.7 0.51 0.53 0.51 94 1006.9
20260507164846 26 127 1.6 14.5 0.51 0.51 0.51 93 1007.0
20260507164340 26 132 3.2 14.5 0.48 0.51 0.48 93 1007.1
20260507163833 26 156 6.4 17.7 0.23 0.25 0.28 93 1007.3
20260507163327 26 114 9.7 22.5 0.05 0.05 0.08 92 1007.4
20260507162822 27 48 9.7 22.5 0.00 0.03 0.00 92 1007.4
20260507162316 27 31 9.7 27.4 0.00 0.03 0.00 92 1007.4
20260507161810 27 64 11.3 27.4 0.00 0.03 0.00 92 1007.4
20260507161303 27 16 9.7 27.4 0.00 0.03 0.00 91 1007.3
20260507160758 27 39 9.7 17.7 0.00 0.03 0.00 92 1007.3
20260507160517 27 10 9.7 17.7 0.00 0.03 0.00 92 1007.4
20260507155745 27 50 6.4 17.7 0.00 0.03 0.03 92 1007.4
20260507155241 27 45 6.4 19.3 0.00 0.03 0.03 92 1007.4
20260507154733 27 64 8.0 19.3 0.00 0.03 0.03 91 1007.5
20260507154456 27 53 9.7 20.9 0.00 0.03 0.03 91 1007.4
20260507153721 27 60 9.7 20.9 0.00 0.03 0.03 91 1007.5
20260507153215 27 70 8.0 17.7 0.00 0.03 0.03 91 1007.5
20260507152709 27 68 8.0 17.7 0.00 0.03 0.03 91 1007.5
20260507152203 27 65 8.0 17.7 0.00 0.03 0.03 91 1007.6
20260507151922 27 78 8.0 22.5 0.00 0.03 0.03 91 1007.6
20260507151151 27 70 8.0 22.5 0.00 0.03 0.03 91 1007.7
20260507150646 27 66 8.0 19.3 0.00 0.03 0.03 91 1007.7
20260507150140 27 26 8.0 17.7 0.00 0.03 0.03 91 1007.8
20260507145633 27 31 8.0 16.1 0.00 0.03 0.03 91 1007.7
20260507145127 27 45 6.4 14.5 0.00 0.03 0.03 92 1007.8
20260507144621 27 58 4.8 12.9 0.00 0.03 0.03 92 1007.9
20260507144342 27 57 4.8 11.3 0.00 0.03 0.03 92 1007.9
20260507143611 27 71 4.8 11.3 0.00 0.03 0.03 92 1008.0
20260507143335 27 64 3.2 9.7 0.00 0.03 0.03 92 1008.0
20260507142557 27 14 3.2 8.0 0.00 0.03 0.03 91 1008.0
20260507142051 27 95 1.6 8.0 0.00 0.03 0.03 92 1007.9
20260507141548 27 154 0.0 0.0 0.00 0.03 0.03 92 1007.8
20260507141038 27 156 0.0 1.6 0.00 0.03 0.03 92 1007.9
20260507140533 27 156 1.6 4.8 0.00 0.03 0.03 91 1007.8
20260507140027 27 156 1.6 4.8 0.00 0.03 0.03 92 1007.8
20260507135522 27 64 0.0 3.2 0.00 0.03 0.03 92 1007.8
20260507135015 27 63 1.6 4.8 0.00 0.03 0.03 92 1007.8
20260507134510 26 112 1.6 4.8 0.00 0.03 0.03 92 1007.8
20260507134003 26 109 0.0 3.2 0.00 0.03 0.03 92 1007.8
20260507133457 26 107 0.0 1.6 0.00 0.03 0.03 92 1007.9
20260507133217 26 110 0.0 3.2 0.00 0.03 0.03 92 1007.8
20260507132445 26 106 1.6 8.0 0.00 0.03 0.03 92 1007.7
20260507131939 26 40 3.2 8.0 0.00 0.03 0.03 92 1007.7
20260507131649 26 158 3.2 8.0 0.00 0.03 0.03 92 1007.6
20260507130927 26 152 1.6 8.0 0.00 0.03 0.03 92 1007.7
20260507130651 26 163 0.0 6.4 0.00 0.03 0.03 91 1007.5
20260507130144 27 173 0.0 4.8 0.00 0.03 0.03 91 1007.5